Location: Cutler
(25.6150°N, 80.3110°W)
Time: 23:57:14
(UTC-04:00)

Cosmos 2360 Rocket - Visible Passes

Search period start: 17 October 2017 00:00
Search period end: 27 October 2017 00:00
Orbit: 834 x 845 km, 71.0° (Epoch: 17 October)

Date Brightness Start Highest point End Pass type
(mag) Time Alt. Az. Time Alt. Az. Time Alt. Az.
17 Oct 3.3 19:22:50 10° NNE 19:27:10 22° ENE 19:31:29 10° ESE visible
17 Oct 3.6 21:06:04 10° NW 21:11:06 34° WSW 21:15:22 14° SSW visible
18 Oct 3.4 19:07:18 10° NNE 19:11:27 21° ENE 19:15:36 10° ESE visible
18 Oct 3.6 20:50:17 10° NW 20:55:27 37° WSW 21:00:36 10° S visible
19 Oct 3.4 20:34:32 10° NW 20:39:47 40° WSW 20:45:01 10° S visible
20 Oct 3.3 20:18:47 10° NW 20:24:07 44° WSW 20:29:27 10° S visible
21 Oct 3.2 20:03:04 10° NNW 20:08:27 47° WSW 20:13:51 10° S visible
22 Oct 3.1 19:47:20 10° NNW 19:52:47 51° WSW 19:58:15 10° S visible
23 Oct 3.0 19:31:36 10° NNW 19:37:07 56° WSW 19:42:38 10° S visible
24 Oct 2.9 19:15:53 10° NNW 19:21:28 61° WSW 19:27:01 10° S visible
25 Oct 2.8 19:00:11 10° NNW 19:05:47 66° WSW 19:11:23 10° S visible
